Weather Roundup
Issued by NWS

Home | Current Version | Previous Version | Text Only | Print | Product List | Glossary On
Versions: 1 2 3 4 5 6 7 8 9 10 11 12 13 14 15 16 17 18 19 20 21 22 23 24 25 26 27 28 29 30 31 32 33 34 35 36 37 38 39 40 41 42 43 44 45 46 47 48 49 50
000
NZUS93 KARX 281859
HRRWXR

CURRENT HOURLY OBSERVATIONS ACROSS
MUCH OF THE UPPER MISSISSIPPI VALLEY
NATIONAL WEATHER SERVICE LA CROSSE WI
200 PM CDT SAT MAR 28 2015


...SOUTHEAST MINNESOTA...


CITY           SKY/WX    TMP DP  RH WIND       PRES   REMARKS
ROCHESTER      SUNNY     32  20  61 S14       30.23F WCI  22
ROCHESTER/MAYO FAIR      35  17  47 S10G16    30.23F WCI  27
WINONA         SUNNY     37  12  35 SW10      30.27F WCI  30
AUSTIN         SUNNY     37  19  48 SE10      30.20F WCI  30
ALBERT LEA     SUNNY     43  19  39 S13       30.19F
DODGE CENTER   MOSUNNY   34  25  69 SE13      30.21F WCI  25
PRESTON        SUNNY     33  19  55 S13       30.24F WCI  24
OWATONNA       SUNNY     37  19  48 S15       30.20F WCI  28
FARIBAULT      FAIR      37  19  48 S12       30.20F WCI  30
$$

...ELSEWHERE IN MINNESOTA...


CITY           SKY/WX    TMP DP  RH WIND       PRES   REMARKS
MINNEAPOLIS    SUNNY     39  15  37 S15       30.20F WCI  31
INTNL FALLS    MOSUNNY   43   9  24 S10G24    30.00F
DULUTH         SUNNY     40   9  28 S16       30.10F WCI  31
RED WING       SUNNY     39  12  33 SW12      30.22F WCI  32
REDWOOD FALLS  CLOUDY    44  27  51 S17       30.12F
MANKATO        SUNNY     39  19  45 S16       30.18F WCI  30
WORTHINGTON    CLOUDY    39  27  60 S18       30.12F WCI  30
FAIRMONT       SUNNY     43  18  36 S21       30.15F
$$

...SOUTHWEST WISCONSIN...


CITY           SKY/WX    TMP DP  RH WIND       PRES   REMARKS
LA CROSSE      SUNNY     40  10  29 S13       30.26F WCI  32
PRAIRIE DU CHI SUNNY     36  12  37 E7        30.29F WCI  30
BOSCOBEL       SUNNY     38  14  37 MISG      30.30F
LONE ROCK      NOT AVBL
PLATTEVILLE    SUNNY     36  14  40 SE8       30.29F WCI  30
FORT MC COY    SUNNY     39   6  25 W3        30.27F
VIROQUA        FAIR      35  13  41 S6        30.25F WCI  30
WIS DELLS      NOT AVBL
$$

...ELSEWHERE IN WISCONSIN...


CITY           SKY/WX    TMP DP  RH WIND       PRES   REMARKS
MILWAUKEE      MOSUNNY   33  16  49 E12       30.32F WCI  24
MADISON        MOSUNNY   35  10  35 VRB5      30.29F WCI  31
GREEN BAY      SUNNY     35  19  52 SW10G16   30.28F WCI  27
EAU CLAIRE     NOT AVBL
BLACK RVR FLS  FAIR      40   6  24 SW10G18   30.24F WCI  34
MEDFORD        SUNNY     33  12  41 S8        30.20F WCI  27
WAUSAU         SUNNY     37   9  31 SW10      30.20F WCI  30
WIS RAPIDS     SUNNY     39   1  20 S10G16    30.25F WCI  32
MARSHFIELD     SUNNY     39   7  26 S6        30.22F WCI  35
RICE LAKE      SUNNY     39   7  26 S7G17     30.21F WCI  34
$$

...NORTHEAST IOWA...


CITY           SKY/WX    TMP DP  RH WIND       PRES   REMARKS
DECORAH        SUNNY     34  16  47 SE6       30.26S WCI  29
MASON CITY     SUNNY     43  19  38 SE13G22   30.21F
CHARLES CITY   SUNNY     39  16  38 S12       30.24F WCI  32
OELWEIN        SUNNY     39  16  38 S9G16     30.26F WCI  33
$$

...ELSEWHERE IN IOWA...


CITY           SKY/WX    TMP DP  RH WIND       PRES   REMARKS
DES MOINES     MOSUNNY   47  13  25 SE13      30.21F
IOWA CITY      SUNNY     41  14  33 S12       30.30F
FORT DODGE     SUNNY     46  19  34 SE10G22   30.19F
$$

...NORTHERN ILLINOIS...


CITY           SKY/WX    TMP DP  RH WIND       PRES   REMARKS
CHICAGO-OHARE  MOSUNNY   34   7  32 NE8       30.32F WCI  27
CHICAGO-MIDWAY MOSUNNY   35   9  33 NE8       30.34F WCI  29
MOLINE         SUNNY     39  10  30 MISG      30.31F
ROCKFORD       MOSUNNY   37  10  32 VRB3      30.33F
PEORIA         SUNNY     41  11  29 SE9       30.32F
$$

NOTE: "FAIR" INDICATES FEW OR NO CLOUDS BELOW 12,000 FEET WITH NO
SIGNIFICANT WEATHER AND/OR OBSTRUCTIONS TO VISIBILITY. WIND
SPEEDS ARE IN MILES-PER-HOUR.



USA.gov is the U.S. government's official web portal to all federal, state and local government web resources and services.